Location: Monrovia
(34.7865°N, 86.7139°W)
Time: 22:05:24
(UTC+00:00)

OAO 2 Rocket - Pass Details

Date: 14 July 2020
Orbit: 676 x 746 km, 35.0° (Epoch: 08 August)

Event Time Altitude Azimuth Distance (km) Brightness Sun altitude
Rises 01:49:30 0° 280° (W) 3,122 8.0 -9.3°
Reaches altitude 10° 01:51:56 10° 277° (W) 2,211 7.0 -9.7°
Maximum altitude 01:57:04 62° 197° (SSW) 823 3.6 -10.6°
Enters shadow 02:01:22 15° 120° (ESE) 1,909 4.9 -11.3°
